Regional Weather Roundup
Issued by NWS

Home | Current Version | Previous Version | Text Only | Print | Product List | Glossary Off
Versions: 1 2 3 4 5 6 7 8 9 10 11 12 13 14 15 16 17 18 19 20 21 22 23 24 25 26 27 28 29 30 31 32 33 34 35 36 37 38 39 40 41 42 43 44 45 46 47 48 49 50

000
ASUS43 KIND 281310
RWRIN

WEATHER ROUNDUP FOR INDIANA
NATIONAL WEATHER SERVICE INDIANAPOLIS IN
900 AM EDT WED SEP 28 2016

NOTE: "FAIR" INDICATES FEW OR NO CLOUDS BELOW 12,000 FEET WITH NO
SIGNIFICANT WEATHER AND/OR OBSTRUCTIONS TO VISIBILITY.

* - STATION DOES NOT REPORT WEATHER SUCH AS PRECIPITATION OR FOG.

+ - STATION NOT QUALITY CONTROLLED BY THE NATIONAL WEATHER SERVICE.
    USE DATA WITH CAUTION...ESPECIALLY DEWPOINT AND RELATIVE
    HUMIDITY OBSERVATIONS.

INZ001>003-010>013-019-020-281400-
NORTHWEST INDIANA

CITY           SKY/WX    TMP DP  RH WIND       PRES   REMARKS
GARY /AIRPORT/ LGT RAIN  55  52  88 N12       29.82
KNOX *+        CLOUDY    50  36  57 N6        29.79R
LA PORTE +     CLOUDY    55  54  97 NE8       29.80R
MICHIGAN CITY+ CLOUDY    54  50  87 CALM      29.81R
MONTICELLO +   CLOUDY    53  49  87 CALM      29.77R
RENSSELAER +   DRIZZLE   52  48  87 CALM      29.79R
VALPARAISO     CLOUDY    54  49  83 N7        29.80

$$

LMZ046-743>745-281400-
SOUTHERN LAKE MICHIGAN

STATION/POSITION TIME  TEMP    WIND        PRES    WAVE
                       AIR SEA DIR/SP/G            HT
                 (UTC) (F)     (DEG/KT/KT) (MB)    (FT)
BURNS HARBOR     1240   57     360/ 14/ 17 1009.8R
MICHIGAN CITY    1240   56      10/ 16/ 19   N/A
5NW MICH CITY    1300   58 66   30/ 14/ 19   N/A     3

$$

INZ004-005-014>016-021>024-281400-
NORTH CENTRAL INDIANA

CITY           SKY/WX    TMP DP  RH WIND       PRES   REMARKS
ELKHART        LGT RAIN N/A N/A N/A N5        29.80
GOSHEN         CLOUDY    52  45  77 CALM      29.80
LOGANSPORT +   CLOUDY    52  50  93 W3        29.79R
PERU/GRISSOM   LGT RAIN  54  50  85 E7        29.77F
ROCHESTER +    LGT RAIN  54  52  94 E3        29.79R
SOUTH BEND     CLOUDY    51  50  96 N6        29.81
WARSAW +       LGT RAIN  52  43  71 CALM      29.81R

$$

INZ006>009-017-018-025>027-281400-
NORTHEAST INDIANA

CITY           SKY/WX    TMP DP  RH WIND       PRES   REMARKS
ANGOLA *+        N/A     50  37  62 CALM      29.80R
AUBURN +       PTSUNNY   54  46  76 CALM      29.82R
FORT WAYNE     PTSUNNY   56  49  77 SE3       29.82
HUNTINGTON +   LGT RAIN  56  49  78 CALM      29.80R
KENDALLVILLE + CLOUDY    50  45  83 E5        29.80R

$$

INZ028-029-035-036-043>045-051>053-281400-
WEST CENTRAL INDIANA

CITY           SKY/WX    TMP DP  RH WIND       PRES   REMARKS
CRAWFORDSVL +  CLOUDY    53  53 100 E3        29.76F
GREENCASTLE +  PTSUNNY   57  57 100 E3        29.79R
LAFAYETTE      LGT RAIN  54  50  86 W3        29.78
TERRE HAUTE    CLOUDY    59  54  83 SW3       29.77

$$

INZ030>032-037>040-046>048-054>057-064-065-281400-
CENTRAL INDIANA

CITY           SKY/WX    TMP DP  RH WIND       PRES   REMARKS
ANDERSON       MOSUNNY   55  55 100 E6        29.79
COLUMBUS       CLOUDY    55  55 100 E6        29.80
FRANKFORT +    FAIR      56  54  91 CALM      29.81R
INDIANAPOLIS   TSTM      57  55  93 NW7       29.80
-EAGLE CREEK   TSTM      58  55  90 NW7       29.80  FOG
MARION +       CLOUDY    55  52  92 CALM      29.81R FOG
MT COMFORT *+  CLOUDY    55  54  94 SE6       29.77F
SHELBYVILLE    PTSUNNY   58  53  84 SE7       29.78
ZIONSVILLE +   RAIN      55  53  95 SW5       29.82R

$$

INZ033-034-041-042-049-050-058-059-281400-
EAST CENTRAL INDIANA

CITY           SKY/WX    TMP DP  RH WIND       PRES   REMARKS
MUNCIE         FAIR      58  54  86 S6        29.80

$$

INZ060-061-067>069-081>083-085>088-281400-
SOUTHWEST INDIANA

CITY           SKY/WX    TMP DP  RH WIND       PRES   REMARKS
EVANSVILLE     PTSUNNY   62  52  69 SW8       29.80
HUNTINGBURG *+   N/A     61  50  67 S8        29.80F
WASHINGTON +   FAIR      60  54  79 MISG      29.77S

$$

INZ062-063-066-070>080-084-089>092-281400-
SOUTH CENTRAL AND SOUTHEAST INDIANA

CITY           SKY/WX    TMP DP  RH WIND       PRES   REMARKS
BLOOMINGTON    CLOUDY    59  52  77 W3        29.78
MADISON *+     FAIR      59  48  67 S7        29.83S

$$





USA.gov is the U.S. government's official web portal to all federal, state and local government web resources and services.